DMSP 5D-3 F16 (USA 172) 1 28054U 03048A 26129.84732351 .00000003 00000+0 25207-4 0 9999 2 28054 98.9916 153.4176 0005948 252.8359 280.1115 14.14479310164069 METEOSAT-9 (MSG-2) 1 28912U 05049B 26128.90929970 .00000134 00000+0 00000+0 0 9990 2 28912 9.2739 54.5457 0001249 348.5622 196.7190 1.00267385 6607 DMSP 5D-3 F17 (USA 191) 1 29522U 06050A 26129.84404181 .00000064 00000+0 55368-4 0 9991 2 29522 98.7389 137.1979 0010448 159.0799 201.0804 14.14986291 7007 FENGYUN 3A 1 32958U 08026A 26129.84510610 .00000054 00000+0 45957-4 0 9990 2 32958 98.6867 71.3999 0007720 234.6991 125.3463 14.19563005929964 GOES 14 1 35491U 09033A 26129.78823567 -.00000103 00000+0 00000+0 0 9996 2 35491 1.5908 83.4798 0001912 334.4607 256.8107 1.00118130 6208 DMSP 5D-3 F18 (USA 210) 1 35951U 09057A 26129.81273940 .00000217 00000+0 13558-3 0 9992 2 35951 98.9024 110.6699 0011223 6.5020 353.6297 14.14874540854168 EWS-G2 (GOES 15) 1 36411U 10008A 26129.55446895 .00000031 00000+0 00000+0 0 9992 2 36411 1.1735 83.5218 0004739 27.6565 19.1200 1.00273637 59258 COMS 1 1 36744U 10032A 26129.78121565 -.00000333 00000+0 00000+0 0 9993 2 36744 4.7075 75.8599 0001051 333.9070 227.2230 1.00272810 50705 FENGYUN 3B 1 37214U 10059A 26129.84228454 .00000135 00000+0 93165-4 0 9995 2 37214 98.9649 175.6881 0021126 296.9371 172.9242 14.14832851802003 SUOMI NPP 1 37849U 11061A 26129.85503550 .00000066 00000+0 52186-4 0 9998 2 37849 98.7937 70.9972 0002852 79.7299 280.4198 14.19509112753000 METEOSAT-10 (MSG-3) 1 38552U 12035B 26129.11414275 .00000003 00000+0 00000+0 0 9990 2 38552 4.5795 61.1815 0001992 325.5269 241.3967 1.00270655 50463 METOP-B 1 38771U 12049A 26129.82619963 .00000055 00000+0 44834-4 0 9992 2 38771 98.6531 182.0852 0003529 98.2737 261.8840 14.21421900707817 INSAT-3D 1 39216U 13038B 26129.78147566 -.00000329 00000+0 00000+0 0 9993 2 39216 1.8264 83.0026 0001117 293.1848 262.2658 1.00270961 46690 FENGYUN 3C 1 39260U 13052A 26129.87995519 .00000067 00000+0 54895-4 0 9991 2 39260 98.4961 105.5193 0015525 130.5253 229.7276 14.15746057653144 METEOR-M 2 1 40069U 14037A 26129.85325310 .00000022 00000+0 29104-4 0 9994 2 40069 98.5100 106.9551 0006347 138.3726 221.7936 14.21450529613879 HIMAWARI-8 1 40267U 14060A 26129.78372898 -.00000267 00000+0 00000+0 0 9996 2 40267 0.0394 91.1101 0000963 341.6686 217.6417 1.00271035 42375 FENGYUN 2G 1 40367U 14090A 26129.80600289 -.00000291 00000+0 00000+0 0 9998 2 40367 5.5421 73.2661 0002587 134.5554 49.6911 1.00267796 41613 METEOSAT-11 (MSG-4) 1 40732U 15034A 26129.25858918 .00000071 00000+0 00000+0 0 9991 2 40732 3.1054 71.3136 0001606 349.4947 268.6790 1.00268082 6826 ELEKTRO-L 2 1 41105U 15074A 26129.18252303 -.00000106 00000+0 00000+0 0 9998 2 41105 6.5968 70.9914 0001703 275.5141 291.6863 1.00273480 38116 INSAT-3DR 1 41752U 16054A 26129.05758402 -.00000069 00000+0 00000+0 0 9990 2 41752 0.1441 87.3210 0010973 193.3060 41.0042 1.00272620 35429 HIMAWARI-9 1 41836U 16064A 26129.58100352 -.00000266 00000+0 00000+0 0 9996 2 41836 0.0412 111.0188 0000984 316.5575 149.7623 1.00272273 34827 GOES 16 1 41866U 16071A 26129.56595322 -.00000082 00000+0 00000+0 0 9996 2 41866 0.2434 85.6487 0001034 273.7615 327.0178 1.00272565 34718 FENGYUN 4A 1 41882U 16077A 26129.78034898 -.00000347 00000+0 00000+0 0 9994 2 41882 2.2253 80.6713 0008097 144.2908 47.3252 1.00273100 34549 CYGFM05 1 41884U 16078A 26129.48612028 .00016698 00000+0 24100-3 0 9997 2 41884 34.9561 156.5167 0007320 155.6650 204.4421 15.55001704522729 CYGFM04 1 41885U 16078B 26129.37905765 .00022949 00000+0 28061-3 0 9995 2 41885 34.9319 126.7671 0007518 198.6063 161.4388 15.59376747522937 CYGFM02 1 41886U 16078C 26129.31902116 .00026020 00000+0 28928-3 0 9993 2 41886 34.9403 122.7219 0008671 198.2967 161.7447 15.61817773523084 CYGFM01 1 41887U 16078D 26129.49099028 .00017075 00000+0 24083-3 0 9990 2 41887 34.9391 157.8441 0006935 149.5963 210.5164 15.55624688522670 CYGFM08 1 41888U 16078E 26129.70566995 .00019194 00000+0 24696-3 0 9991 2 41888 34.9426 136.9629 0009065 181.4480 178.6219 15.58043601522962 CYGFM07 1 41890U 16078G 26129.66719775 .00019473 00000+0 24980-3 0 9991 2 41890 34.9442 125.5924 0007989 199.6055 160.4363 15.58132569522980 CYGFM03 1 41891U 16078H 26129.70218109 .00020115 00000+0 25805-3 0 9994 2 41891 34.9397 127.3108 0007061 189.8868 170.1719 15.58135942522967 FENGYUN 3D 1 43010U 17072A 26129.87942977 -.00000203 00000+0 -74201-4 0 9992 2 43010 99.0113 103.6153 0002057 127.2869 232.8494 14.19730770439558 NOAA 20 (JPSS-1) 1 43013U 17073A 26129.79774411 .00000047 00000+0 43102-4 0 9993 2 43013 98.7756 69.6050 0001840 54.5494 305.5854 14.19550449439025 GOES 17 1 43226U 18022A 26129.80938243 -.00000173 00000+0 00000+0 0 9997 2 43226 0.8392 86.2378 0000657 321.5966 21.6762 1.00270988 30030 FENGYUN 2H 1 43491U 18050A 26129.78284796 -.00000120 00000+0 00000+0 0 9998 2 43491 2.9324 79.5013 0001241 141.2353 8.0769 1.00274168 29050 METOP-C 1 43689U 18087A 26129.77715188 .00000066 00000+0 49871-4 0 9992 2 43689 98.6665 190.0780 0000262 78.8876 281.2331 14.21501445389378 GEO-KOMPSAT-2A 1 43823U 18100A 26129.78121565 -.00000335 00000+0 00000+0 0 9995 2 43823 0.0465 94.8206 0002189 338.3201 203.9682 1.00271573 27247 METEOR-M2 2 1 44387U 19038A 26129.89011674 -.00000155 00000+0 -47158-4 0 9994 2 44387 98.9142 116.6143 0002216 107.6620 252.4801 14.24354485355843 ARKTIKA-M 1 1 47719U 21016A 26128.11849507 -.00000109 00000+0 00000+0 0 9991 2 47719 63.2274 63.4261 7273377 269.7438 14.8678 2.00605471 37987 FENGYUN 3E 1 49008U 21062A 26129.86763238 -.00000309 00000+0 -12502-3 0 9991 2 49008 98.7506 133.7030 0001551 154.3649 205.7604 14.19899486251145 GOES 18 1 51850U 22021A 26129.63173845 .00000105 00000+0 00000+0 0 9997 2 51850 0.0356 83.6255 0000633 22.8498 211.4070 1.00272326 6205 NOAA 21 (JPSS-2) 1 54234U 22150A 26129.83192253 .00000041 00000+0 39946-4 0 9990 2 54234 98.7044 69.2686 0001066 349.4716 10.6438 14.19558482181106 METEOSAT-12 (MTG-I1) 1 54743U 22170C 26129.32796060 .00000001 00000+0 00000+0 0 9997 2 54743 0.7376 24.3054 0000927 1.7034 318.8416 1.00272132 12584 TIANMU-1 03 1 55973U 23039A 26129.81488343 .00011370 00000+0 23333-3 0 9993 2 55973 97.5228 302.3191 0002289 210.5892 149.5224 15.46202623174900 TIANMU-1 04 1 55974U 23039B 26129.88335706 .00011720 00000+0 23586-3 0 9994 2 55974 97.5165 301.5427 0002992 211.2786 148.8286 15.46764044174927 TIANMU-1 05 1 55975U 23039C 26129.79390443 .00010992 00000+0 22616-3 0 9997 2 55975 97.5211 301.9261 0001692 240.8607 119.2473 15.46137413174885 TIANMU-1 06 1 55976U 23039D 26129.81987654 .00011951 00000+0 24115-3 0 9999 2 55976 97.5218 302.5512 0002061 233.7446 126.3613 15.46683205174916 FENGYUN 3G 1 56232U 23055A 26129.63973234 .00017275 00000+0 27776-3 0 9993 2 56232 49.9917 184.8729 0006089 18.9817 341.1376 15.53033856174012 METEOR-M2 3 1 57166U 23091A 26129.87574002 -.00000009 00000+0 14932-4 0 9995 2 57166 98.6112 185.6322 0002773 286.0539 74.0334 14.24043453149064 TIANMU-1 07 1 57399U 23101A 26129.82944624 .00004568 00000+0 16271-3 0 9991 2 57399 97.2620 181.3861 0000523 240.8052 119.3137 15.29422048155788 TIANMU-1 08 1 57400U 23101B 26129.86212720 .00004145 00000+0 14777-3 0 9993 2 57400 97.2609 181.1929 0002376 233.8067 126.2954 15.29449619155784 TIANMU-1 09 1 57401U 23101C 26129.84574852 .00004638 00000+0 16497-3 0 9997 2 57401 97.2568 180.6138 0000959 269.0508 91.0623 15.29463851155787 TIANMU-1 10 1 57402U 23101D 26129.87813859 .00004672 00000+0 16596-3 0 9992 2 57402 97.2647 181.6566 0002338 260.1493 99.9484 15.29499010155788 FENGYUN 3F 1 57490U 23111A 26129.85239990 .00000022 00000+0 30806-4 0 9992 2 57490 98.6862 200.5722 0001171 115.7063 244.4234 14.19932252143422 ARKTIKA-M 2 1 58584U 23198A 26127.88273134 .00000170 00000+0 00000+0 0 9993 2 58584 63.2200 158.8550 6891509 267.5523 18.8212 2.00594955 17510 TIANMU-1 11 1 58645U 23205A 26129.84396630 .00003973 00000+0 15435-3 0 9991 2 58645 97.3475 152.0112 0010415 132.7688 227.4428 15.26596085131677 TIANMU-1 12 1 58646U 23205B 26129.87882461 .00004252 00000+0 16528-3 0 9992 2 58646 97.3464 151.8093 0009027 117.7310 242.4846 15.26548024131663 TIANMU-1 13 1 58647U 23205C 26129.84208023 .00004173 00000+0 16200-3 0 9995 2 58647 97.3492 152.0394 0009467 103.0096 257.2200 15.26602922131654 TIANMU-1 14 1 58648U 23205D 26129.82816575 .00004258 00000+0 16598-3 0 9995 2 58648 97.3428 151.2383 0009815 105.4603 254.7721 15.26448816131650 TIANMU-1 19 1 58660U 23208A 26129.86246384 .00006335 00000+0 21412-3 0 9990 2 58660 97.4459 245.9948 0006475 94.6844 265.5137 15.30987193131463 TIANMU-1 20 1 58661U 23208B 26129.79943499 .00006343 00000+0 20651-3 0 9997 2 58661 97.4398 246.5273 0008623 101.1722 259.0489 15.32176802131546 TIANMU-1 21 1 58662U 23208C 26129.84419319 .00007150 00000+0 21692-3 0 9996 2 58662 97.4455 249.0908 0008541 95.3989 264.8229 15.34387031131683 TIANMU-1 22 1 58663U 23208D 26129.83190725 .00005636 00000+0 19362-3 0 9991 2 58663 97.4454 245.9313 0005172 112.6099 247.5689 15.30513219131469 TIANMU-1 15 1 58700U 24004A 26129.82432723 .00004274 00000+0 16587-3 0 9997 2 58700 97.4681 316.0185 0008397 119.1768 241.0311 15.26620577129927 TIANMU-1 16 1 58701U 24004B 26129.54446764 .00004460 00000+0 17395-3 0 9992 2 58701 97.4626 315.0193 0007105 122.9757 237.2165 15.26439773129886 TIANMU-1 17 1 58702U 24004C 26129.85770360 .00004245 00000+0 16616-3 0 9995 2 58702 97.4655 315.8025 0006819 124.7651 235.4230 15.26350298129927 TIANMU-1 18 1 58703U 24004D 26129.84062708 .00004146 00000+0 16108-3 0 9991 2 58703 97.4672 316.0168 0005457 118.7346 241.4441 15.26614278129921 INSAT-3DS 1 58990U 24033A 26129.78264788 -.00000147 00000+0 00000+0 0 9994 2 58990 0.0716 257.9696 0001571 155.7533 177.7135 1.00272250 46688 METEOR-M2 4 1 59051U 24039A 26129.84697500 .00000015 00000+0 26348-4 0 9999 2 59051 98.6989 89.6326 0005954 284.0212 76.0304 14.22425560113812 GOES 19 1 60133U 24119A 26129.81215579 -.00000239 00000+0 00000+0 0 9991 2 60133 0.0379 98.2595 0000845 8.8144 337.7375 1.00270433 6577 FENGYUN 3H 1 65815U 25219A 26129.84826447 .00000038 00000+0 38498-4 0 9993 2 65815 98.6753 71.3672 0001298 104.9514 255.1806 14.19913469 31946